Greenville, AL

6:02 PM CDT on October 17, 2017 (GMT -0500)
Greenville Municipal

Weather History for KPRN - October, 2013

Change the Weather History Date:

Sunday, October 20, 2013

  Actual Average Record
Temperature  
Mean Temperature 62 °F -  
Max Temperature 72 °F 77 °F 93 °F (2016)
Min Temperature 51 °F 50 °F 30 °F (1989)
Degree Days  
Heating Degree Days 4    
Growing Degree Days 12 (Base 50)    
Moisture  
Dew Point 52 °F    
Average Humidity 82    
Maximum Humidity 100    
Minimum Humidity 47    
Precipitation  
Precipitation 0.01 in - - ()
Sea Level Pressure  
Sea Level Pressure 30.03 in    
Wind  
Wind Speed 3 mph (North)    
Max Wind Speed 7 mph    
Max Gust Speed -    
Visibility 8 miles    
Events      
Averages and records for this station are not official NWS values.
T = Trace of Precipitation, MM = Missing Value Source: NWS Daily Summary

Daily Weather History Graph

Daily Weather History Graph

Search for Another Location

Airport or City:

Trip Planner

Search our weather history database for the weather conditions in past years. The results will help you decide how hot, cold, wet, or windy it might be!

Date:

Astronomy

Oct. 20, 2013 Rise Set
Actual Time 6:53 AM CDT 6:08 PM CDT
Civil Twilight 6:28 AM CDT 6:32 PM CDT
Nautical Twilight 6:00 AM CDT 7:01 PM CDT
Astronomical Twilight 5:32 AM CDT 7:29 PM CDT
Moon 7:23 PM CDT (10/20) 8:24 AM CDT (10/20)
Length of Visible Light 12h 04m
Length of Day
11h 14m
Full, 97% of the Moon is Illuminated
Oct 20
Full
Oct 26
Last Quarter
Nov 3
New
Nov 9
First Quarter
Nov 17
Full

Hourly Weather History & Observations

Time (CDT) Temp. Dew Point Humidity Pressure Visibility Wind Dir Wind Speed Gust Speed Precip Events Conditions
12:56 AM 55.9 °F 54.0 °F 93% 30.00 in 10.0 mi Calm Calm - N/A   Clear
1:56 AM 55.0 °F 53.1 °F 93% 30.00 in 9.0 mi NNW 5.8 mph - N/A   Clear
2:56 AM 55.9 °F 54.0 °F 93% 30.00 in 8.0 mi North 5.8 mph - N/A   Clear
3:56 AM 55.0 °F 53.1 °F 93% 29.99 in 9.0 mi North 5.8 mph - N/A   Clear
4:56 AM 54.0 °F 52.0 °F 93% 30.01 in 7.0 mi North 5.8 mph - N/A   Clear
5:56 AM 53.1 °F 51.1 °F 93% 30.02 in 7.0 mi North 4.6 mph - N/A   Clear
6:44 AM 51.8 °F 50.0 °F 94% 30.03 in 6.0 mi North 5.8 mph - N/A   Scattered Clouds
6:56 AM 52.0 °F 51.1 °F 97% 30.03 in 2.5 mi North 5.8 mph - N/A   Mostly Cloudy
7:01 AM 51.8 °F 51.8 °F 100% 30.03 in 0.8 mi North 5.8 mph - N/A   Mostly Cloudy
7:53 AM 53.6 °F 51.8 °F 94% 30.05 in 1.0 mi North 4.6 mph - N/A   Overcast
7:56 AM 53.1 °F 52.0 °F 96% 30.05 in 1.2 mi North 4.6 mph - N/A   Overcast
8:11 AM 53.6 °F 53.6 °F 100% 30.06 in 2.0 mi North 3.5 mph - N/A   Overcast
8:25 AM 53.6 °F 53.6 °F 100% 30.06 in 3.0 mi NNE 4.6 mph - N/A   Overcast
8:56 AM 55.0 °F 53.1 °F 93% 30.06 in 6.0 mi NNE 3.5 mph - N/A   Mostly Cloudy
9:56 AM 60.1 °F 55.0 °F 83% 30.06 in 10.0 mi Variable 3.5 mph - N/A   Overcast
10:14 AM 60.8 °F 53.6 °F 77% 30.07 in 10.0 mi Calm Calm - N/A   Scattered Clouds
10:56 AM 64.9 °F 55.0 °F 70% 30.06 in 10.0 mi Calm Calm - N/A   Clear
11:56 AM 66.9 °F 53.1 °F 61% 30.05 in 10.0 mi Calm Calm - N/A   Clear
12:56 PM 71.1 °F 53.1 °F 53% 30.03 in 10.0 mi North 6.9 mph - 0.01 in   Clear
1:56 PM 72.0 °F 53.1 °F 51% 30.00 in 10.0 mi Variable 5.8 mph - N/A   Partly Cloudy
2:56 PM 72.0 °F 52.0 °F 49% 29.99 in 10.0 mi Calm Calm - N/A   Partly Cloudy
3:56 PM 72.0 °F 51.1 °F 48% 29.99 in 10.0 mi WNW 3.5 mph - N/A   Scattered Clouds
4:56 PM 71.1 °F 50.0 °F 47% 29.99 in 10.0 mi Calm Calm - N/A   Clear
5:56 PM 66.0 °F 53.1 °F 63% 30.00 in 10.0 mi WNW 3.5 mph - N/A   Clear
6:56 PM 61.0 °F 54.0 °F 78% 30.01 in 10.0 mi Calm Calm - N/A   Clear
7:56 PM 57.9 °F 54.0 °F 87% 30.03 in 10.0 mi Calm Calm - N/A   Clear
8:56 PM 57.0 °F 53.1 °F 87% 30.03 in 10.0 mi North 4.6 mph - N/A   Clear
9:56 PM 55.0 °F 51.1 °F 86% 30.04 in 10.0 mi North 3.5 mph - N/A   Clear
10:56 PM 53.1 °F 50.0 °F 89% 30.04 in 10.0 mi Calm Calm - N/A   Clear
11:56 PM 52.0 °F 48.9 °F 89% 30.03 in 10.0 mi Calm Calm - N/A   Clear